Regional Weather Roundup
Issued by NWS New Orleans/Baton Rouge, LA

Home | Current Version | Previous Version | Graphics & Text | Print | Product List | Glossary On
Versions: 1 2 3 4 5 6 7 8 9 10 11 12 13 14 15 16 17 18 19 20 21 22 23 24 25 26 27 28 29 30 31 32 33 34 35 36 37 38 39 40 41 42 43 44 45 46 47 48 49 50
358
ASUS44 KLIX 181701
RWRLIX
NEW ORLEANS REGIONAL WEATHER ROUNDUP
NATIONAL WEATHER SERVICE NEW ORLEANS LA
1100 AM CST THU DEC 18 2014

NOTE: "FAIR" INDICATES FEW OR NO CLOUDS BELOW 12,000 FEET WITH NO
      SIGNIFICANT WEATHER AND/OR OBSTRUCTIONS TO VISIBILITY.
      SKY/WX - SKY CONDITION AND SIGNIFICANT WEATHER.
      TMP - AIR TEMPERATURE.     DP    - DEWPOINT TEMPERATURE.
      RH  - RELATIVE HUMIDITY.   PRES  - PRESSURE.
      HI  - HEAT INDEX.          WCI   - WIND CHILL INDEX.

*  THESE STATIONS ARE NOT NWS OR FAA STATIONS AND ARE NOT UNDER
   NWS QUALITY CONTROL.

LAZ038-040-048-061>063-065>067-069-181800-
SOUTHEAST LOUISIANA

CITY           SKY/WX    TMP DP  RH WIND       PRES   REMARKS
N.O. AUDUBON   NOT AVBL
N.O. INTL ARPT PTSUNNY   66  52  60 SE8       30.17F
N.O. LAKEFRONT MOSUNNY   63  51  65 E14       30.19F
N.O. DOWNTOWN*   N/A     64  48  55 NE3       30.18F
SLIDELL        SUNNY     62  45  53 SE8       30.19F
BATON ROUGE    CLOUDY    61  49  64 E6        30.16F
BOOTHVILLE     NOT AVBL
BELLE CHASSE   NOT AVBL
BOGALUSA*        N/A     60  44  55 SE6       30.20F
GALLIANO*      NOT AVBL
NEW ROADS*     NOT AVBL
GONZALES*      NOT AVBL
HAMMOND*       NOT AVBL
HOUMA*         SUNNY     68  55  64 E8        30.17F
PORT FOURCHON* SUNNY     66  57  72 E14       30.20S

$$

MSZ070-080>082-181800-
SOUTHERN MISSISSIPPI

CITY           SKY/WX    TMP DP  RH WIND       PRES   REMARKS
MCCOMB         PTSUNNY   58  44  60 SE9       30.17F
GULFPORT       SUNNY     58  40  51 SE9       30.20F
BILOXI         SUNNY     59  42  53 VRB5      30.20F
PASCAGOULA     SUNNY     59  41  51 VRB3      30.20F
STENNIS ARPT*  SUNNY     57  37  47 SE7       30.20F

$$

COASTAL OBSERVATIONS
LAKE AND NEARSHORE STATIONS

STATION/POSITION TIME  TEMP    WIND        PRES    WAVE
                       AIR SEA DIR/SP/G            HT/PER
                 (UTC) (F)     (DEG/KT/KT) (MB)    (FT/S)
PASCAGOULA       1600   57      60/  8/ 10 1022.7
WAVELAND YACHT   1600   54     120/ 11/ 12 1022.1
GRAND ISLE       1600   63 61   90/ 10/ 15 1022.3
SOUTHWEST PASS   1600   64                 1022.4
NEW CANAL        1600   61 57  140/  2/  7 1022.4
SHELL BEACH      1600   60 58  100/ 11/ 13 1022.2

OFFSHORE STATIONS

STATION/POSITION TIME  TEMP    WIND        PRES    WAVE
                       AIR SEA DIR/SP/G            HT/PER
                 (UTC) (F)     (DEG/KT/KT) (MB)    (FT/S)
64 S DAUPHIN ISL 1700   66 74   70/  6/  8 1022.1    1

$$




USA.gov is the U.S. government's official web portal to all federal, state and local government web resources and services.